Weather in Lesobaza

Russia / Kostroma Oblast     58°20′38″N   44°49′27″E
temp.,
°C
wind,
m/s
gust,
m/s
humid.,
%
clouds,
%
prec.,
mm/h
press.,
hPa
HPBL,
m
22 october, fri
fri2200:00+9sw41294100 0.0 993616
03:00+9ssw51297100 0.7 991574
06:00+10ssw71593100 3.9 988966
09:00+10sw61388100 3.9 988920
12:00+11sw6128095 0.0 9891094
15:00+11sw612746 0.1 9891173
18:00+9sw51377100 0.1 9901002
21:00+6wsw5128356 0.8 9941028
23 october, sat
sat2300:00+7wsw71269100 0.1 9951269
03:00+5wsw6127596 0.1 9971208
06:00+5wsw5126988 0.0 9981478
09:00+5sw5117320 0.0 10001071
12:00+7sw5107295 0.0 10011339
15:00+6sw497968 0.1 1003951
18:00+6sw4983100 0.1 1004821
21:00+5ssw3783100 0.3 1004644
24 october, sun
sun2400:00+5sw2589100 0.1 1004536
03:00+4ssw2693100 0.3 1003479
06:00+4sw2590100 0.1 1003406
09:00+3wsw249395 0.3 1004410
12:00+4w3584100 0.3 1005739
15:00+4wnw368995 0.5 1006676
18:00+3w269299 0.1 1008323
21:00+2n4996100 0.8 1011587
25 october, mon
mon2500:000n5989100 0.4 1014755
03:00−1nnw4108271 0.5 1017762
06:00−2nnw410865 0.0 1020525
09:00−1nw487924 0.0 1022578
12:00+2nw47595 0.0 1023954
15:00+2nw47585 0.0 10241043
18:00−1w277590 0.0 1025191
21:00−1wsw2677100 0.0 1025199
26 october, tue
tue2600:00−1sw397389 0.0 1024369
03:000sw51370100 0.0 1022576
06:000sw61470100 0.0 1020756
09:00+1sw51368100 0.3 1018729
12:00+3wsw5116696 0.0 1017781
15:00+2wsw51071100 0.0 1016732
18:00+1sw41178100 0.0 1016581
21:00+1sw41182100 0.0 1014509